Flag for Brazil Weather past 2 weeks in Fortaleza, Ceará, Brazil

Now
79 °F

Passing clouds.


Feels Like: 81 °F
Forecast: 76 / 85 °F
Wind: 15 mph from East

Location: Fortaleza Aeropor-To

Current Time: Aug 30, 2014 at 11:53:03 PM

Latest Report: Aug 30, 2014 at 11:00 PM


Visibility: N/A

Pressure: 29.98 "Hg

Humidity: 70%

Dew point: 68 °F

Location of FortalezaLocation

Historic Weather in Fortaleza — Graph

°F

Fortaleza temperature yesterday

Maximum temperature yesterday: 86 °F (at 12:00 PM)
Minimum temperature yesterday: 77 °F (at 3:00 AM)
Average temperature yesterday: 80 °F

Past Weeks' High & Low Weather Summary

 TemperatureHumidityPressure
High88 °F (Aug 16, 11:00 AM)83% (Aug 21, 3:00 AM)30.04 "Hg (Aug 21, 3:00 AM)
Low72 °F (Aug 16, 6:00 AM)35% (Aug 16, 10:00 AM)29.83 "Hg (Aug 18, 3:00 PM)
Average80 °F64%29.94 "Hg
* Reported Aug 15 10:00 PM — Aug 30 10:00 PM, Fortaleza, Weather by CustomWeather, © 2014

Note: Actual official high and low records may vary slightly from our data, if they occured in-between our weather recording intervals... More about our weather records

Advertising

Fortaleza weather history for previous 24 hours

 ConditionsComfort  
Time TempWeatherWind HumidityBarometerVisibility
10:00 PM
Aug 30
79 °FPassing clouds.13 mph70%29.98 "HgN/A
9:00 PM79 °FPassing clouds.14 mph70%29.98 "HgN/A
8:00 PM79 °FPassing clouds.12 mph70%29.98 "HgN/A
7:00 PM79 °FPassing clouds.10 mph74%29.95 "HgN/A
6:00 PM79 °FPassing clouds.10 mph74%29.92 "HgN/A
5:00 PM81 °FPassing clouds.13 mph70%29.92 "HgN/A
4:00 PM82 °FSunny.17 mph62%29.89 "Hg10 mi
3:00 PM82 °FSunny.17 mph62%29.89 "Hg10 mi
2:00 PM84 °FSunny.18 mph55%29.92 "Hg10 mi
1:00 PM86 °FSunny.21 mph49%29.92 "Hg10 mi
12:00 PM86 °FSunny.25 mph49%29.95 "Hg10 mi
11:00 AM84 °FPassing clouds.23 mph51%29.98 "HgN/A
10:00 AM84 °FPassing clouds.23 mph51%30.01 "HgN/A
9:00 AM82 °FScattered clouds.21 mph58%30.01 "HgN/A
8:00 AM82 °FPartly sunny.15 mph62%30.01 "HgN/A
7:00 AM79 °FScattered clouds.12 mph70%29.98 "HgN/A
6:00 AM77 °FPassing clouds.13 mph74%29.98 "HgN/A
5:00 AM77 °FPassing clouds.16 mph74%29.95 "HgN/A
4:00 AM79 °FPassing clouds.17 mph70%29.95 "HgN/A
3:00 AM79 °FPassing clouds.18 mph70%29.95 "HgN/A
2:00 AM79 °FPassing clouds.18 mph74%29.95 "HgN/A
1:00 AM79 °FPassing clouds.18 mph74%29.95 "HgN/A
12:00 AM79 °FPassing clouds.13 mph74%29.95 "HgN/A
11:00 PM
Aug 29
79 °FPassing clouds.16 mph74%29.98 "HgN/A
Weather by CustomWeather, © 2014

See weather overviewHow to use our weather pages